Probability
0 0 0 0 0 0 0 0 0 0 0 0 0 0 0 1 2 2 1 0 0 0 0 0 0 1 2 3 3 3 4 6 8 10 13 16 17 18
0 0 0 0 0 0 0 0 0 0 0 0 0 0 0 0 1 2 2 1 0 0 0 0 0 0 1 2 2 2 3 3 4 6 9 12 14 15
0 0 0 0 0 0 0 0 0 0 0 0 0 0 0 0 0 1 1 1 1 0 0 0 0 0 0 0 1 1 1 1 0 1 4 7 9 10
0 0 0 0 0 0 0 0 0 0 0 0 0 0 0 0 0 0 1 1 1 0 0 0 0 0 0 0 0 0 0 0 0 0 1 3 5 6
0 0 0 0 0 0 0 0 0 0 0 0 0 0 0 0 0 0 0 0 0 0 0 0 0 0 0 0 0 0 0 0 0 0 1 2 3 3
0 0 0 0 0 0 0 0 0 0 0 0 0 0 0 0 0 0 0 0 0 0 0 0 0 0 0 0 0 0 0 0 0 0 0 1 1 1
0 0 0 0 0 0 0 0 0 0 0 0 0 0 0 0 0 0 0 0 0 0 0 0 0 0 0 0 0 0 0 0 0 0 0 0 0 0
0 0 0 0 0 0 0 0 0 0 0 0 0 0 0 0 0 0 0 0 0 0 0 0 0 0 0 0 0 0 0 0 0 0 0 0 0 0
0 0 0 0 0 0 0 0 0 0 0 0 0 0 0 0 0 0 0 0 0 0 0 0 0 0 0 0 0 0 0 0 0 0 0 0 0 0
0 0 0 0 0 0 0 0 0 0 0 0 0 0 0 0 0 0 0 0 0 0 0 0 0 0 0 0 0 0 0 0 0 0 0 0 0 0
0 0 0 0 0 0 0 0 0 0 0 0 0 0 0 0 0 0 0 0 0 0 0 0 0 0 0 0 0 0 0 0 0 0 0 0 0 0
0 0 0 0 0 0 0 0 0 0 0 0 0 0 0 0 0 0 0 0 0 0 0 0 0 0 0 0 0 0 0 0 0 0 0 0 0 0
0 0 0 0 0 0 0 0 0 0 0 0 0 0 0 0 0 0 0 0 0 0 0 0 0 0 0 0 0 0 0 0 0 0 0 0 0 0
0 0 0 0 0 0 0 0 0 0 0 0 0 0 0 0 0 0 0 0 0 0 0 0 0 0 0 0 0 0 0 0 0 0 0 0 0 0
0 0 0 0 0 0 0 0 0 0 0 0 0 0 0 0 0 0 0 0 0 0 0 0 0 0 0 0 0 0 0 0 0 0 0 0 0 0
0 0 0 0 0 0 0 0 0 0 0 0 0 0 0 0 0 0 0 0 0 0 0 0 0 0 0 0 0 0 0 0 0 0 0 0 0 0
0 0 0 0 0 0 0 0 0 0 0 0 0 0 0 0 0 0 0 0 0 0 0 0 0 0 0 0 0 0 0 0 0 0 0 0 0 0
0 0 0 0 0 0 0 0 0 0 0 0 0 0 0 0 0 0 0 0 0 0 0 0 0 0 0 0 0 0 0 0 0 0 0 0 0 0
0 0 0 0 0 0 0 0 0 0 0 0 0 0 0 0 0 0 0 0 0 0 0 0 0 0 0 0 0 0 0 0 0 0 0 0 0 0
0 0 0 0 0 0 0 0 0 0 0 0 0 0 0 0 0 0 0 0 0 0 0 0 0 0 0 0 0 0 0 0 0 0 0 0 0 0
0 0 0 0 0 0 0 0 0 0 0 0 0 0 0 0 0 0 0 0 0 0 0 0 0 0 0 0 0 0 0 0 0 0 0 0 0 0
0 0 0 0 0 0 0 0 0 0 0 0 0 0 0 0 0 0 0 0 0 0 0 0 0 0 0 0 0 0 0 0 0 0 0 0 0 0
0 0 0 0 0 0 0 0 0 0 0 0 0 0 0 0 0 0 0 0 0 0 0 0 0 0 0 0 0 0 0 0 0 0 0 0 0 0
Wind_Speed
2 2 2 2 2 2 2 3 3 2 3 3 3 3 3 3 4 3 4 7 9 9 9 9 9 10 10 11 12 11 11 11 12 12 12 12 12 13
1 1 2 2 2 2 2 2 2 3 3 3 3 3 3 3 3 2 4 6 7 8 8 9 9 9 9 10 11 11 11 11 12 13 12 13 13 13
2 1 2 2 2 2 2 1 2 2 3 4 2 2 2 2 2 2 3 3 3 6 7 7 8 8 8 9 10 11 11 11 12 12 13 12 12 12
2 2 2 2 2 2 1 1 2 2 3 4 3 2 3 2 2 2 2 2 3 5 6 7 7 8 8 8 10 10 10 10 11 11 12 12 12 12
1 1 2 1 2 2 2 1 1 1 2 2 3 2 2 1 1 2 2 2 3 3 5 6 7 7 7 7 8 9 10 10 10 11 11 11 11 12
1 1 2 1 2 2 2 2 1 1 1 1 2 2 2 2 0 1 2 2 2 3 3 4 5 6 6 7 7 9 9 10 10 10 10 10 10 10
1 2 2 2 3 2 1 1 1 1 1 1 2 1 2 1 1 1 2 2 2 2 1 2 2 2 3 5 7 8 8 9 10 11 11 10 10 10
2 3 3 3 4 4 3 1 1 1 1 1 2 2 3 2 2 2 1 1 2 2 1 2 1 2 3 3 6 7 7 8 9 10 10 11 11 10
2 2 2 3 3 2 3 3 3 3 2 2 2 3 3 3 2 2 1 2 3 3 1 2 2 3 3 3 6 7 7 8 8 9 10 11 10 10
2 2 2 3 3 2 2 2 3 3 3 2 3 4 4 3 3 3 3 1 2 2 1 2 2 2 3 3 5 6 7 8 8 9 9 10 10 10
2 2 2 3 4 3 1 2 4 4 4 4 4 4 4 4 3 1 1 1 2 3 1 2 2 2 2 2 3 5 6 7 7 8 9 9 10 9
3 3 4 4 4 3 1 2 3 4 3 3 3 4 3 3 3 2 3 2 2 2 2 2 2 1 2 2 2 2 2 4 6 7 8 8 8 5
2 3 3 5 5 5 3 3 5 4 2 2 2 3 3 2 2 2 3 3 3 3 3 2 2 1 2 2 2 2 2 2 2 3 5 7 8 7
3 3 3 6 6 5 3 4 5 2 1 1 2 3 3 3 3 3 3 4 4 5 4 3 2 2 2 2 3 2 2 2 2 2 2 4 6 8
3 4 5 6 5 4 4 4 3 1 1 1 2 3 3 3 3 2 3 2 2 4 4 3 3 2 2 3 3 2 2 2 2 2 2 2 3 3
2 4 5 4 3 4 4 3 1 2 2 3 3 3 2 2 2 2 2 2 2 3 3 3 3 3 3 3 3 3 3 2 2 2 2 2 2 3
1 1 2 2 2 2 3 3 2 1 2 2 2 2 2 2 2 2 1 1 1 2 3 2 2 2 4 3 3 4 3 3 3 3 2 2 3 4
2 0 1 2 2 2 2 3 2 2 2 2 2 2 2 2 2 2 1 1 2 3 3 2 1 1 2 3 5 4 3 3 3 3 2 3 4 3
1 1 2 2 3 2 2 2 2 2 2 1 1 2 2 2 2 2 2 2 2 3 3 2 1 1 2 4 4 4 4 3 2 2 3 3 4 4
2 2 3 3 3 2 2 2 2 2 2 2 1 2 2 2 2 2 2 2 3 2 2 2 2 3 4 4 3 3 4 4 3 3 2 2 3 3
3 3 3 3 3 2 2 2 2 2 2 2 2 2 2 2 2 2 3 4 3 2 2 3 4 4 2 0 1 3 3 4 5 4 2 2 2 2
3 3 3 2 2 2 2 2 2 2 2 2 2 2 2 2 2 3 3 3 2 2 3 3 2 1 0 1 3 3 3 3 3 4 5 5 3 3
3 3 2 2 2 1 1 2 2 2 2 2 2 2 2 2 2 2 3 2 2 2 2 2 1 1 1 1 2 2 3 3 2 2 3 4 5 6
Wind_Direction
259 261 264 266 254 247 231 212 205 250 275 271 273 273 259 248 252 242 239 244 240 233 231 231 232 231 233 235 234 231 229 228 229 231 230 227 226 225
267 280 284 277 282 270 249 235 210 208 244 257 250 263 268 262 260 248 244 251 251 240 235 231 229 230 233 235 233 232 231 229 227 227 229 227 225 225
292 273 278 280 292 291 275 250 232 209 239 267 266 275 268 264 280 268 256 245 253 243 236 230 229 231 235 237 232 231 233 233 228 226 225 226 225 224
286 295 297 304 312 292 289 272 248 223 217 258 278 274 260 258 261 265 270 256 243 246 244 243 238 235 238 238 232 228 228 229 227 226 224 224 225 226
263 283 290 325 317 298 296 302 281 261 220 233 263 268 272 274 286 284 277 277 267 257 248 246 244 243 242 242 236 229 226 223 223 224 224 225 224 225
262 253 271 290 289 286 297 297 295 304 275 251 267 274 274 276 247 272 297 287 275 277 270 259 252 251 251 249 245 236 229 223 221 220 220 221 220 222
302 282 277 298 302 289 282 273 296 292 277 270 275 284 282 285 265 252 264 285 281 262 261 270 259 253 255 253 250 243 234 229 222 216 216 217 218 220
294 302 302 307 303 300 294 266 173 214 234 238 255 250 259 244 247 243 240 284 295 284 208 270 240 246 252 241 245 241 235 231 226 220 217 219 221 223
267 287 308 322 327 311 305 312 311 295 239 202 228 245 246 239 232 251 240 221 239 249 207 274 266 254 257 258 252 244 235 230 229 227 223 223 224 228
256 248 255 291 303 293 304 320 307 303 283 246 231 243 243 238 217 220 220 238 277 271 192 240 268 261 266 262 250 240 239 236 234 231 231 229 228 230
270 263 252 262 284 282 297 305 310 306 299 283 261 265 267 263 241 195 201 171 284 286 223 197 252 276 281 272 266 248 242 240 240 235 230 229 228 228
298 291 274 271 282 276 241 254 284 285 299 320 323 321 305 293 267 209 203 198 222 267 244 188 230 263 303 281 274 274 254 252 248 244 237 233 226 218
288 293 287 291 291 287 267 234 252 265 274 278 295 306 312 307 295 248 207 198 205 239 238 181 210 206 213 280 294 278 261 261 251 253 245 239 226 208
262 276 287 300 298 296 283 275 282 290 293 305 302 296 293 290 285 277 249 226 220 231 240 194 200 206 206 256 278 291 281 250 227 235 243 241 232 221
261 287 299 305 311 309 297 293 293 270 254 272 275 273 265 265 280 295 297 272 257 251 243 217 207 217 204 220 241 252 274 276 238 231 239 233 226 210
292 305 315 319 324 313 313 311 281 232 226 244 258 270 284 292 292 284 287 306 311 298 282 239 214 201 220 237 232 247 236 235 251 244 236 242 237 219
280 346 351 343 338 327 318 309 301 291 262 262 267 286 299 300 291 291 278 278 260 272 290 297 259 222 222 227 240 242 237 243 240 232 233 256 255 233
122 291 283 282 280 283 290 297 298 295 279 274 272 263 271 281 287 296 291 274 267 263 261 260 276 328 314 271 225 227 231 237 244 229 214 232 258 254
147 248 257 262 263 265 266 271 278 280 271 275 279 271 267 276 282 288 291 285 272 262 259 249 224 209 267 287 277 221 215 235 229 240 231 225 243 254
218 242 253 256 256 259 267 274 281 292 295 290 284 283 274 270 280 286 284 275 271 266 274 268 237 222 225 240 256 267 234 217 219 237 244 251 260 268
237 243 245 249 254 254 260 266 275 279 281 280 280 280 280 267 272 281 280 281 278 267 268 268 261 262 236 181 287 286 268 240 222 221 219 227 256 264
241 241 245 246 251 246 241 245 265 277 281 276 280 282 284 272 268 280 280 278 273 262 259 271 291 310 173 224 263 275 290 304 279 258 245 217 202 212
238 237 241 252 256 242 229 241 249 261 262 265 272 279 286 287 282 280 285 281 282 282 280 287 309 312 277 246 264 281 289 299 310 321 304 289 245 238